No;Time;Interval(mi);Indoor Humidity(%);Indoor Temperature(�C);Outdoor Humidity(%);Outdoor Temperature(�C);Absolute Pressure(Hpa);Wind(km/h);Gust(km/h);Direction;Relative Pressure(Hpa);Dewpoint(�C);Windchill(�C);Hour Rainfall(mm);24 hour Rainfall(mm);Week Rainfall(mm);Month Rainfall(mm);Total Rainfall(mm);Wind Level(bft);Gust Level(bft)
1;01-10-2011 00:00;30;54;25.3;70;18.6;1020.7;0.0;0.0;NE;1017.5;13.0;18.6;0.0;0.0;0.3;33.0;195.3;0;0
2;01-10-2011 00:30;30;54;25.2;70;18.3;1020.4;0.0;0.0;NE;1017.2;12.8;18.3;0.0;0.0;0.3;33.0;195.3;0;0
3;01-10-2011 01:00;30;54;25.0;73;17.8;1020.6;0.0;0.0;N;1017.4;12.9;17.8;0.0;0.0;0.3;33.0;195.3;0;0
4;01-10-2011 01:30;30;55;24.9;75;17.5;1020.4;0.0;0.0;N;1017.2;13.0;17.5;0.0;0.0;0.3;33.0;195.3;0;0
5;01-10-2011 02:00;30;55;24.8;74;17.6;1020.3;0.0;0.0;N;1017.1;12.9;17.6;0.0;0.0;0.3;33.0;195.3;0;0
6;01-10-2011 02:30;30;56;24.8;75;17.2;1020.5;0.0;0.0;N;1017.3;12.8;17.2;0.0;0.0;0.3;33.0;195.3;0;0
7;01-10-2011 03:00;30;56;24.7;77;16.3;1020.5;0.0;0.0;NE;1017.3;12.3;16.3;0.0;0.0;0.3;33.0;195.3;0;0
8;01-10-2011 03:30;30;56;24.7;80;16.0;1020.5;0.0;0.0;E;1017.3;12.6;16.0;0.0;0.0;0.3;33.0;195.3;0;0
9;01-10-2011 04:00;30;56;24.6;81;16.3;1020.4;0.0;0.0;NE;1017.2;13.1;16.3;0.0;0.0;0.3;33.0;195.3;0;0
10;01-10-2011 04:30;30;56;24.6;82;15.5;1020.3;0.0;0.0;NE;1017.1;12.5;15.5;0.0;0.0;0.3;33.0;195.3;0;0
11;01-10-2011 05:00;30;56;24.5;83;15.2;1020.4;0.0;0.0;NE;1017.2;12.4;15.2;0.0;0.0;0.3;33.0;195.3;0;0
12;01-10-2011 05:30;30;56;24.5;85;15.0;1020.3;0.0;0.0;NE;1017.1;12.5;15.0;0.0;0.0;0.3;33.0;195.3;0;0
13;01-10-2011 06:00;30;56;24.5;86;14.6;1020.5;0.0;0.0;NE;1017.3;12.3;14.6;0.0;0.0;0.3;33.0;195.3;0;0
14;01-10-2011 06:30;30;56;24.4;87;14.3;1020.5;0.0;0.0;NE;1017.3;12.2;14.3;0.0;0.0;0.3;33.0;195.3;0;0
15;01-10-2011 07:00;30;56;24.4;88;14.3;1020.6;0.0;0.0;NE;1017.4;12.4;14.3;0.0;0.0;0.3;33.0;195.3;0;0
16;01-10-2011 07:30;30;56;24.4;87;14.0;1020.9;0.0;0.0;NE;1017.7;11.9;14.0;0.0;0.0;0.3;33.0;195.3;0;0
17;01-10-2011 08:00;30;56;24.4;88;14.2;1021.0;0.0;0.0;NE;1017.8;12.3;14.2;0.0;0.0;0.3;33.0;195.3;0;0
18;01-10-2011 08:30;30;56;24.4;88;14.5;1021.2;0.0;0.0;NE;1018.0;12.6;14.5;0.0;0.0;0.3;33.0;195.3;0;0
19;01-10-2011 09:00;30;56;24.3;82;17.3;1021.3;0.0;1.1;NW;1018.1;14.2;17.3;0.0;0.0;0.3;33.0;195.3;0;1
20;01-10-2011 09:30;30;55;24.3;68;21.0;1021.5;0.0;0.0;NW;1018.3;14.9;21.0;0.0;0.0;0.3;33.0;195.3;0;0
21;01-10-2011 10:00;30;55;24.2;65;21.0;1021.7;0.0;1.1;N;1018.5;14.2;21.0;0.0;0.0;0.3;33.0;195.3;0;1
22;01-10-2011 10:30;30;55;24.3;58;24.7;1021.8;0.0;0.0;N;1018.6;15.9;24.7;0.0;0.0;0.3;33.0;195.3;0;0
23;01-10-2011 11:00;30;56;24.3;46;29.6;1021.9;0.0;2.5;E;1018.7;16.8;29.6;0.0;0.0;0.3;33.0;195.3;0;1
24;01-10-2011 11:30;30;55;24.4;40;31.3;1021.9;0.0;1.1;NW;1018.7;16.1;31.3;0.0;0.0;0.3;33.0;195.3;0;1
25;01-10-2011 12:00;30;55;24.5;37;32.8;1021.8;0.0;0.0;NW;1018.6;16.2;32.8;0.0;0.0;0.3;33.0;195.3;0;0
26;01-10-2011 12:30;30;55;24.6;36;33.4;1021.6;0.0;0.0;NE;1018.4;16.3;33.4;0.0;0.0;0.3;33.0;195.3;0;0
27;01-10-2011 13:00;30;55;24.8;34;34.6;1021.6;0.0;0.0;NE;1018.4;16.5;34.6;0.0;0.0;0.3;33.0;195.3;0;0
28;01-10-2011 13:30;30;52;25.0;32;33.2;1021.6;0.0;1.1;SE;1018.4;14.3;33.2;0.0;0.0;0.3;33.0;195.3;0;1
29;01-10-2011 14:00;30;51;25.2;34;34.7;1021.3;0.0;2.5;N;1018.1;16.6;34.7;0.0;0.0;0.3;33.0;195.3;0;1
30;01-10-2011 14:30;30;50;25.4;34;34.8;1021.0;0.0;0.0;SW;1017.8;16.7;34.8;0.0;0.0;0.3;33.0;195.3;0;0
31;01-10-2011 15:00;30;48;25.5;29;34.6;1020.9;1.1;2.5;NW;1017.7;14.0;34.6;0.0;0.0;0.3;33.0;195.3;1;1
32;01-10-2011 15:30;30;49;25.6;30;34.6;1020.8;1.1;3.6;S;1017.6;14.5;34.6;0.0;0.0;0.3;33.0;195.3;1;1
33;01-10-2011 16:00;30;50;25.5;28;35.6;1020.5;1.1;3.6;SE;1017.3;14.3;35.6;0.0;0.0;0.3;33.0;195.3;1;1
34;01-10-2011 16:30;30;51;25.5;29;34.4;1020.5;0.0;1.1;S;1017.3;13.8;34.4;0.0;0.0;0.3;33.0;195.3;0;1
35;01-10-2011 17:00;30;48;25.5;33;30.2;1020.4;0.0;1.1;NW;1017.2;12.2;30.2;0.0;0.0;0.3;33.0;195.3;0;1
36;01-10-2011 17:30;30;48;25.8;37;28.1;1020.5;0.0;1.1;N;1017.3;12.1;28.1;0.0;0.0;0.3;33.0;195.3;0;1
37;01-10-2011 18:00;30;46;26.0;37;27.4;1020.8;1.1;3.6;NE;1017.6;11.5;27.4;0.0;0.0;0.3;33.0;195.3;1;1
38;01-10-2011 18:30;30;45;26.1;39;27.0;1020.8;1.1;3.6;N;1017.6;11.9;27.0;0.0;0.0;0.3;33.0;195.3;1;1
39;01-10-2011 19:00;30;46;26.2;42;26.1;1020.9;0.0;1.1;E;1017.7;12.2;26.1;0.0;0.0;0.3;33.0;195.3;0;1
40;01-10-2011 19:30;30;46;26.1;45;25.0;1021.1;0.0;0.0;N;1017.9;12.3;25.0;0.0;0.0;0.3;33.0;195.3;0;0
41;01-10-2011 20:00;30;47;26.0;50;23.7;1021.2;0.0;2.5;N;1018.0;12.7;23.7;0.0;0.0;0.3;33.0;195.3;0;1
42;01-10-2011 20:30;30;47;26.0;53;22.6;1021.5;0.0;0.0;N;1018.3;12.6;22.6;0.0;0.0;0.3;33.0;195.3;0;0
43;01-10-2011 21:00;30;48;25.9;57;21.2;1021.5;0.0;0.0;N;1018.3;12.4;21.2;0.0;0.0;0.3;33.0;195.3;0;0
44;01-10-2011 21:30;30;49;25.9;62;20.2;1021.6;0.0;0.0;N;1018.4;12.7;20.2;0.0;0.0;0.3;33.0;195.3;0;0
45;01-10-2011 22:00;30;49;25.8;65;19.6;1021.6;0.0;0.0;N;1018.4;12.9;19.6;0.0;0.0;0.3;33.0;195.3;0;0
46;01-10-2011 22:30;30;51;25.7;66;19.6;1021.7;0.0;0.0;NW;1018.5;13.1;19.6;0.0;0.0;0.3;33.0;195.3;0;0
47;01-10-2011 23:00;30;52;25.7;68;18.9;1021.9;0.0;0.0;NW;1018.7;12.9;18.9;0.0;0.0;0.3;33.0;195.3;0;0
48;01-10-2011 23:30;30;53;25.7;71;17.6;1022.0;0.0;0.0;NW;1018.8;12.3;17.6;0.0;0.0;0.3;33.0;195.3;0;0
49;02-10-2011 00:00;30;52;25.6;73;17.2;1021.9;0.0;0.0;NW;1018.7;12.3;17.2;0.0;0.0;0.3;33.0;195.3;0;0
50;02-10-2011 00:30;30;53;25.6;76;16.6;1022.0;0.0;0.0;NW;1018.8;12.4;16.6;0.0;0.0;0.3;33.0;195.3;0;0
51;02-10-2011 01:00;30;53;25.5;78;16.1;1021.8;0.0;0.0;NW;1018.6;12.3;16.1;0.0;0.0;0.3;33.0;195.3;0;0
52;02-10-2011 01:30;30;53;25.4;79;16.2;1021.8;0.0;0.0;NW;1018.6;12.6;16.2;0.0;0.0;0.3;33.0;195.3;0;0
53;02-10-2011 02:00;30;53;25.3;82;15.7;1021.8;0.0;0.0;NW;1018.6;12.7;15.7;0.0;0.0;0.3;33.0;195.3;0;0
54;02-10-2011 02:30;30;53;25.2;83;15.6;1021.7;0.0;0.0;NW;1018.5;12.7;15.6;0.0;0.0;0.3;33.0;195.3;0;0
55;02-10-2011 03:00;30;53;25.2;84;15.2;1021.5;0.0;0.0;NW;1018.3;12.5;15.2;0.0;0.0;0.3;33.0;195.3;0;0
56;02-10-2011 03:30;30;53;25.1;86;14.9;1021.5;0.0;0.0;NW;1018.3;12.6;14.9;0.0;0.0;0.3;33.0;195.3;0;0
57;02-10-2011 04:00;30;53;25.1;87;15.0;1021.4;0.0;0.0;NW;1018.2;12.9;15.0;0.0;0.0;0.3;33.0;195.3;0;0
58;02-10-2011 04:30;30;54;25.0;86;15.1;1021.5;0.0;0.0;NW;1018.3;12.8;15.1;0.0;0.0;0.3;33.0;195.3;0;0
59;02-10-2011 05:00;30;55;24.9;87;14.7;1021.3;0.0;0.0;NW;1018.1;12.6;14.7;0.0;0.0;0.3;33.0;195.3;0;0
60;02-10-2011 05:30;30;55;24.9;88;14.3;1021.5;0.0;0.0;NW;1018.3;12.4;14.3;0.0;0.0;0.3;33.0;195.3;0;0
61;02-10-2011 06:00;30;55;24.8;91;13.9;1021.5;0.0;0.0;NW;1018.3;12.5;13.9;0.0;0.0;0.3;33.0;195.3;0;0
62;02-10-2011 06:30;30;55;24.8;92;13.7;1021.5;0.0;0.0;NW;1018.3;12.4;13.7;0.0;0.0;0.3;33.0;195.3;0;0
63;02-10-2011 07:00;30;55;24.7;93;13.6;1021.4;0.0;0.0;NW;1018.2;12.5;13.6;0.0;0.0;0.3;33.0;195.3;0;0
64;02-10-2011 07:30;30;55;24.7;93;13.6;1021.6;0.0;0.0;NE;1018.4;12.5;13.6;0.0;0.0;0.3;33.0;195.3;0;0
65;02-10-2011 08:00;30;55;24.7;94;13.4;1021.7;0.0;0.0;N;1018.5;12.5;13.4;0.0;0.0;0.3;33.0;195.3;0;0
66;02-10-2011 08:30;30;55;24.6;92;14.1;1021.7;0.0;0.0;NW;1018.5;12.8;14.1;0.0;0.0;0.3;33.0;195.3;0;0
67;02-10-2011 09:00;30;55;24.6;88;16.4;1022.0;0.0;0.0;N;1018.8;14.4;16.4;0.0;0.0;0.3;33.0;195.3;0;0
68;02-10-2011 09:30;30;55;24.7;75;19.8;1022.0;0.0;0.0;E;1018.8;15.3;19.8;0.0;0.0;0.3;33.0;195.3;0;0
69;02-10-2011 10:00;30;55;24.7;68;21.3;1022.0;0.0;0.0;S;1018.8;15.2;21.3;0.0;0.0;0.3;33.0;195.3;0;0
70;02-10-2011 10:30;30;55;24.8;61;24.9;1022.0;0.0;0.0;S;1018.8;16.9;24.9;0.0;0.0;0.3;33.0;195.3;0;0
71;02-10-2011 11:00;30;55;24.9;46;30.5;1022.0;0.0;0.0;S;1018.8;17.6;30.5;0.0;0.0;0.3;33.0;195.3;0;0
72;02-10-2011 11:30;30;54;25.0;41;32.3;1021.9;0.0;1.1;NW;1018.7;17.4;32.3;0.0;0.0;0.3;33.0;195.3;0;1
73;02-10-2011 12:00;30;53;25.1;38;33.3;1021.8;0.0;0.0;W;1018.6;17.1;33.3;0.0;0.0;0.3;33.0;195.3;0;0
74;02-10-2011 12:30;30;53;25.3;37;31.3;1021.7;1.1;3.6;SW;1018.5;14.9;31.3;0.0;0.0;0.3;33.0;195.3;1;1
75;02-10-2011 13:00;30;53;25.6;35;31.9;1021.4;1.1;2.5;W;1018.2;14.6;31.9;0.0;0.0;0.3;33.0;195.3;1;1
76;02-10-2011 13:30;30;53;25.8;36;33.2;1021.2;0.0;1.1;NE;1018.0;16.2;33.2;0.0;0.0;0.3;33.0;195.3;0;1
77;02-10-2011 14:00;30;49;26.0;31;32.9;1021.1;0.0;2.5;N;1017.9;13.6;32.9;0.0;0.0;0.3;33.0;195.3;0;1
78;02-10-2011 14:30;30;46;26.1;29;32.1;1020.8;1.1;3.6;SW;1017.6;11.9;32.1;0.0;0.0;0.3;33.0;195.3;1;1
79;02-10-2011 15:00;30;45;26.1;28;32.3;1020.6;0.0;1.1;N;1017.4;11.5;32.3;0.0;0.0;0.3;33.0;195.3;0;1
80;02-10-2011 15:30;30;44;26.3;26;34.4;1020.7;0.0;1.1;S;1017.5;12.2;34.4;0.0;0.0;0.3;33.0;195.3;0;1
81;02-10-2011 16:00;30;44;26.3;29;33.7;1020.5;1.1;3.6;NW;1017.3;13.2;33.7;0.0;0.0;0.3;33.0;195.3;1;1
82;02-10-2011 16:30;30;43;26.4;28;33.8;1020.3;0.0;1.1;N;1017.1;12.8;33.8;0.0;0.0;0.3;33.0;195.3;0;1
83;02-10-2011 17:00;30;43;26.5;35;28.9;1020.2;0.0;1.1;NW;1017.0;11.9;28.9;0.0;0.0;0.3;33.0;195.3;0;1
84;02-10-2011 17:30;30;43;26.5;37;27.1;1020.1;0.0;1.1;NW;1016.9;11.2;27.1;0.0;0.0;0.3;33.0;195.3;0;1
85;02-10-2011 18:00;30;43;26.5;40;26.3;1020.0;0.0;1.1;E;1016.8;11.7;26.3;0.0;0.0;0.3;33.0;195.3;0;1
86;02-10-2011 18:30;30;44;26.5;43;25.4;1020.0;0.0;0.0;NE;1016.8;11.9;25.4;0.0;0.0;0.3;33.0;195.3;0;0
87;02-10-2011 19:00;30;44;26.4;45;24.8;1019.9;0.0;0.0;NE;1016.7;12.1;24.8;0.0;0.0;0.3;33.0;195.3;0;0
88;02-10-2011 19:30;30;44;26.2;51;22.6;1020.2;0.0;0.0;N;1017.0;12.0;22.6;0.0;0.0;0.3;33.0;195.3;0;0
89;02-10-2011 20:00;30;44;26.1;56;21.1;1020.3;0.0;0.0;N;1017.1;12.0;21.1;0.0;0.0;0.3;33.0;195.3;0;0
90;02-10-2011 20:30;30;46;25.7;62;20.4;1020.3;0.0;0.0;N;1017.1;12.9;20.4;0.0;0.0;0.3;33.0;195.3;0;0
91;02-10-2011 21:00;30;48;25.6;65;19.4;1020.1;0.0;0.0;N;1016.9;12.7;19.4;0.0;0.0;0.3;33.0;195.3;0;0
92;02-10-2011 21:30;30;51;25.8;68;18.9;1020.4;0.0;0.0;N;1017.2;12.9;18.9;0.0;0.0;0.3;33.0;195.3;0;0
93;02-10-2011 22:00;30;49;25.8;70;18.1;1020.4;0.0;0.0;N;1017.2;12.6;18.1;0.0;0.0;0.3;33.0;195.3;0;0
94;02-10-2011 22:30;30;50;25.9;71;17.6;1020.4;0.0;0.0;N;1017.2;12.3;17.6;0.0;0.0;0.3;33.0;195.3;0;0
95;02-10-2011 23:00;30;50;25.6;73;17.1;1020.1;0.0;0.0;N;1016.9;12.2;17.1;0.0;0.0;0.3;33.0;195.3;0;0
96;02-10-2011 23:30;30;50;25.5;75;16.9;1020.1;0.0;0.0;N;1016.9;12.5;16.9;0.0;0.0;0.3;33.0;195.3;0;0
97;03-10-2011 00:00;30;51;25.4;77;16.6;1020.2;0.0;0.0;N;1017.0;12.6;16.6;0.0;0.0;0.3;33.0;195.3;0;0
98;03-10-2011 00:30;30;51;25.3;78;16.2;1020.1;0.0;0.0;N;1016.9;12.4;16.2;0.0;0.0;0.3;33.0;195.3;0;0
99;03-10-2011 01:00;30;52;25.2;81;15.9;1020.0;0.0;0.0;N;1016.8;12.7;15.9;0.0;0.0;0.3;33.0;195.3;0;0
100;03-10-2011 01:30;30;52;25.1;83;15.4;1019.9;0.0;0.0;N;1016.7;12.5;15.4;0.0;0.0;0.3;33.0;195.3;0;0
101;03-10-2011 02:00;30;52;25.1;84;15.3;1019.8;0.0;0.0;N;1016.6;12.6;15.3;0.0;0.0;0.3;33.0;195.3;0;0
102;03-10-2011 02:30;30;52;25.0;84;15.1;1019.9;0.0;0.0;N;1016.7;12.4;15.1;0.0;0.0;0.3;33.0;195.3;0;0
103;03-10-2011 03:00;30;53;25.0;85;14.6;1019.8;0.0;0.0;N;1016.6;12.1;14.6;0.0;0.0;0.3;33.0;195.3;0;0
104;03-10-2011 03:30;30;54;24.9;86;14.3;1019.5;0.0;0.0;N;1016.3;12.0;14.3;0.0;0.0;0.3;33.0;195.3;0;0
105;03-10-2011 04:00;30;54;24.9;87;14.5;1019.3;0.0;0.0;N;1016.1;12.4;14.5;0.0;0.0;0.3;33.0;195.3;0;0
106;03-10-2011 04:30;30;54;24.8;88;13.7;1019.3;0.0;0.0;N;1016.1;11.8;13.7;0.0;0.0;0.3;33.0;195.3;0;0
107;03-10-2011 05:00;30;54;24.8;89;13.5;1019.4;0.0;0.0;N;1016.2;11.7;13.5;0.0;0.0;0.3;33.0;195.3;0;0
108;03-10-2011 05:30;30;54;24.7;90;13.3;1019.2;0.0;0.0;N;1016.0;11.7;13.3;0.0;0.0;0.3;33.0;195.3;0;0
109;03-10-2011 06:00;30;54;24.7;90;13.6;1019.1;0.0;0.0;N;1015.9;12.0;13.6;0.0;0.0;0.3;33.0;195.3;0;0
110;03-10-2011 06:30;30;54;24.6;90;12.9;1019.4;0.0;0.0;N;1016.2;11.3;12.9;0.0;0.0;0.3;33.0;195.3;0;0
111;03-10-2011 07:00;30;53;24.6;91;13.1;1019.3;0.0;0.0;NE;1016.1;11.7;13.1;0.0;0.0;0.3;33.0;195.3;0;0
112;03-10-2011 07:30;30;53;24.6;89;13.7;1019.4;0.0;0.0;NW;1016.2;11.9;13.7;0.0;0.0;0.3;33.0;195.3;0;0
113;03-10-2011 08:00;30;50;24.2;88;13.2;1019.5;0.0;0.0;NE;1016.3;11.3;13.2;0.0;0.0;0.3;33.0;195.3;0;0
114;03-10-2011 08:30;30;51;24.1;88;13.6;1019.6;0.0;0.0;E;1016.4;11.7;13.6;0.0;0.0;0.3;33.0;195.3;0;0
115;03-10-2011 09:00;30;53;24.1;84;15.9;1019.6;0.0;1.1;NW;1016.4;13.2;15.9;0.0;0.0;0.3;33.0;195.3;0;1
116;03-10-2011 09:30;30;54;24.2;71;18.2;1019.9;0.0;2.5;N;1016.7;12.9;18.2;0.0;0.0;0.3;33.0;195.3;0;1
117;03-10-2011 10:00;30;54;24.3;66;19.7;1019.9;0.0;0.0;NW;1016.7;13.2;19.7;0.0;0.0;0.3;33.0;195.3;0;0
118;03-10-2011 10:30;30;54;24.4;60;22.9;1020.0;0.0;1.1;NW;1016.8;14.8;22.9;0.0;0.0;0.3;33.0;195.3;0;1
119;03-10-2011 11:00;30;54;24.5;45;27.0;1019.9;1.1;2.5;NW;1016.7;14.1;27.0;0.0;0.0;0.3;33.0;195.3;1;1
120;03-10-2011 11:30;30;54;24.6;44;28.4;1020.0;2.5;3.6;N;1016.8;15.0;28.4;0.0;0.0;0.3;33.0;195.3;1;1
121;03-10-2011 12:00;30;54;24.7;39;30.4;1020.0;0.0;1.1;NE;1016.8;14.9;30.4;0.0;0.0;0.3;33.0;195.3;0;1
122;03-10-2011 12:30;30;54;24.8;36;31.0;1019.8;2.5;3.6;N;1016.6;14.2;31.0;0.0;0.0;0.3;33.0;195.3;1;1
123;03-10-2011 13:00;30;54;24.8;38;30.7;1019.7;0.0;1.1;NE;1016.5;14.8;30.7;0.0;0.0;0.3;33.0;195.3;0;1
124;03-10-2011 13:30;30;54;24.9;36;30.8;1019.4;2.5;3.6;NW;1016.2;14.0;30.8;0.0;0.0;0.3;33.0;195.3;1;1
125;03-10-2011 14:00;30;53;25.0;33;31.0;1019.1;1.1;3.6;SW;1015.9;12.9;31.0;0.0;0.0;0.3;33.0;195.3;1;1
126;03-10-2011 14:30;30;53;25.0;31;32.9;1018.8;0.0;0.0;E;1015.6;13.6;32.9;0.0;0.0;0.3;33.0;195.3;0;0
127;03-10-2011 15:00;30;53;25.1;27;34.8;1018.6;1.1;2.5;SE;1015.4;13.1;34.8;0.0;0.0;0.3;33.0;195.3;1;1
128;03-10-2011 15:30;30;53;25.1;26;35.7;1018.3;2.5;3.6;NE;1015.1;13.3;35.7;0.0;0.0;0.3;33.0;195.3;1;1
129;03-10-2011 16:00;30;53;25.1;24;35.0;1018.0;1.1;2.5;N;1014.8;11.5;35.0;0.0;0.0;0.3;33.0;195.3;1;1
130;03-10-2011 16:30;30;53;25.1;27;33.8;1017.8;1.1;2.5;N;1014.6;12.2;33.8;0.0;0.0;0.3;33.0;195.3;1;1
131;03-10-2011 17:00;30;52;25.1;31;29.2;1017.7;1.1;3.6;NW;1014.5;10.4;29.2;0.0;0.0;0.3;33.0;195.3;1;1
132;03-10-2011 17:30;30;52;25.1;30;27.9;1017.7;0.0;2.5;N;1014.5;8.8;27.9;0.0;0.0;0.3;33.0;195.3;0;1
133;03-10-2011 18:00;30;48;25.1;31;27.2;1017.5;2.5;5.0;SW;1014.3;8.6;27.2;0.0;0.0;0.3;33.0;195.3;1;1
134;03-10-2011 18:30;30;46;25.1;34;26.4;1017.5;0.0;0.0;N;1014.3;9.3;26.4;0.0;0.0;0.3;33.0;195.3;0;0
135;03-10-2011 19:00;30;46;25.1;35;25.8;1017.5;0.0;0.0;N;1014.3;9.2;25.8;0.0;0.0;0.3;33.0;195.3;0;0
136;03-10-2011 19:30;30;46;25.1;40;24.0;1017.7;0.0;0.0;N;1014.5;9.6;24.0;0.0;0.0;0.3;33.0;195.3;0;0
137;03-10-2011 20:00;30;46;25.0;43;22.9;1017.9;0.0;0.0;N;1014.7;9.7;22.9;0.0;0.0;0.3;31.5;195.3;0;0
138;03-10-2011 20:30;30;46;25.0;48;21.5;1017.8;0.0;0.0;N;1014.6;10.1;21.5;0.0;0.0;0.3;23.4;195.3;0;0
139;03-10-2011 21:00;30;45;25.2;49;21.8;1017.8;0.0;0.0;NE;1014.6;10.6;21.8;0.0;0.0;0.3;23.4;195.3;0;0
140;03-10-2011 21:30;30;46;25.4;52;21.2;1018.0;0.0;0.0;N;1014.8;11.0;21.2;0.0;0.0;0.3;23.4;195.3;0;0
141;03-10-2011 22:00;30;47;25.5;54;20.5;1017.9;0.0;1.1;E;1014.7;10.9;20.5;0.0;0.0;0.3;23.4;195.3;0;1
142;03-10-2011 22:30;30;46;25.4;54;20.7;1018.2;1.1;3.6;N;1015.0;11.1;20.7;0.0;0.0;0.3;23.4;195.3;1;1
143;03-10-2011 23:00;30;47;25.3;54;20.1;1017.9;0.0;1.1;NW;1014.7;10.5;20.1;0.0;0.0;0.3;23.4;195.3;0;1
144;03-10-2011 23:30;30;47;25.2;56;19.8;1017.9;0.0;0.0;N;1014.7;10.8;19.8;0.0;0.0;0.3;23.4;195.3;0;0
145;04-10-2011 00:00;30;47;25.1;57;19.3;1017.9;1.1;2.5;N;1014.7;10.6;19.3;0.0;0.0;0.3;23.4;195.3;1;1
146;04-10-2011 00:30;30;48;25.0;60;18.7;1017.9;0.0;0.0;N;1014.7;10.8;18.7;0.0;0.0;0.3;23.4;195.3;0;0
147;04-10-2011 01:00;30;49;24.9;61;18.4;1017.6;0.0;0.0;NW;1014.4;10.8;18.4;0.0;0.0;0.3;23.4;195.3;0;0
148;04-10-2011 01:30;30;49;24.8;62;17.8;1017.7;0.0;0.0;NE;1014.5;10.4;17.8;0.0;0.0;0.3;23.4;195.3;0;0
149;04-10-2011 02:00;30;49;24.8;64;17.3;1017.7;0.0;0.0;NW;1014.5;10.4;17.3;0.0;0.0;0.3;23.4;195.3;0;0
150;04-10-2011 02:30;30;50;24.7;66;16.8;1017.7;0.0;0.0;NE;1014.5;10.4;16.8;0.0;0.0;0.3;23.4;195.3;0;0
151;04-10-2011 03:00;30;50;24.7;68;16.3;1017.7;0.0;0.0;N;1014.5;10.4;16.3;0.0;0.0;0.3;23.4;195.3;0;0
152;04-10-2011 03:30;30;50;24.7;71;15.6;1017.8;0.0;0.0;N;1014.6;10.4;15.6;0.0;0.0;0.3;23.4;195.3;0;0
153;04-10-2011 04:00;30;50;24.6;74;15.0;1017.9;0.0;0.0;NE;1014.7;10.4;15.0;0.0;0.0;0.3;22.2;195.3;0;0
154;04-10-2011 04:30;30;50;24.6;76;14.7;1018.0;0.0;0.0;E;1014.8;10.5;14.7;0.0;0.0;0.3;21.3;195.3;0;0
155;04-10-2011 05:00;30;50;24.6;79;14.6;1018.1;0.0;1.1;N;1014.9;11.0;14.6;0.0;0.0;0.3;21.3;195.3;0;1
156;04-10-2011 05:30;30;50;24.5;81;15.3;1018.3;0.0;0.0;NE;1015.1;12.1;15.3;0.0;0.0;0.3;21.3;195.3;0;0
157;04-10-2011 06:00;30;50;24.5;83;15.4;1018.3;0.0;1.1;E;1015.1;12.5;15.4;0.0;0.0;0.3;21.0;195.3;0;1
158;04-10-2011 06:30;30;51;24.5;84;15.0;1018.5;0.0;0.0;N;1015.3;12.3;15.0;0.0;0.0;0.3;21.0;195.3;0;0
159;04-10-2011 07:00;30;51;24.5;88;15.0;1018.6;0.0;0.0;N;1015.4;13.0;15.0;0.0;0.0;0.3;21.0;195.3;0;0
160;04-10-2011 07:30;30;54;24.5;89;16.1;1018.8;0.0;0.0;N;1015.6;14.3;16.1;0.0;0.0;0.3;20.7;195.3;0;0
161;04-10-2011 08:00;30;55;24.3;89;16.7;1019.0;1.1;2.5;SE;1015.8;14.9;16.7;0.0;0.0;0.3;20.4;195.3;1;1
162;04-10-2011 08:30;30;56;24.4;86;17.2;1019.2;1.1;2.5;E;1016.0;14.9;17.2;0.0;0.0;0.3;20.4;195.3;1;1
163;04-10-2011 09:00;30;56;24.7;84;18.4;1019.4;0.0;0.0;NE;1016.2;15.7;18.4;0.0;0.0;0.3;20.4;195.3;0;0
164;04-10-2011 09:30;30;56;24.8;79;19.0;1019.6;0.0;1.1;S;1016.4;15.3;19.0;0.0;0.0;0.3;20.4;195.3;0;1
165;04-10-2011 10:00;30;56;24.8;78;19.5;1019.8;0.0;1.1;N;1016.6;15.6;19.5;0.0;0.0;0.3;20.4;195.3;0;1
166;04-10-2011 10:30;30;56;24.8;74;20.0;1020.0;0.0;0.0;E;1016.8;15.2;20.0;0.0;0.0;0.3;20.4;195.3;0;0
167;04-10-2011 11:00;30;56;24.8;69;21.7;1020.1;0.0;0.0;NW;1016.9;15.8;21.7;0.0;0.0;0.3;20.4;195.3;0;0
168;04-10-2011 11:30;30;56;24.8;64;22.7;1020.3;1.1;2.5;NW;1017.1;15.6;22.7;0.0;0.0;0.3;20.4;195.3;1;1
169;04-10-2011 12:00;30;56;24.7;68;21.0;1020.5;0.0;2.5;NE;1017.3;14.9;21.0;0.0;0.0;0.3;20.4;195.3;0;1
170;04-10-2011 12:30;30;56;24.7;72;20.6;1020.5;0.0;1.1;SE;1017.3;15.4;20.6;0.0;0.0;0.3;20.4;195.3;0;1
171;04-10-2011 13:00;30;56;24.7;73;20.7;1020.6;1.1;3.6;E;1017.4;15.7;20.7;0.0;0.0;0.3;20.4;195.3;1;1
172;04-10-2011 13:30;30;56;24.7;68;21.8;1020.4;1.1;2.5;SWW;1017.2;15.7;21.8;0.0;0.0;0.3;20.4;195.3;1;1
173;04-10-2011 14:00;30;56;24.8;67;21.7;1020.4;0.0;3.6;N;1017.2;15.3;21.7;0.0;0.0;0.3;20.4;195.3;0;1
174;04-10-2011 14:30;30;57;24.8;67;22.0;1020.2;1.1;2.5;E;1017.0;15.6;22.0;0.0;0.0;0.3;20.4;195.3;1;1
175;04-10-2011 15:00;30;57;24.9;65;22.8;1020.0;0.0;1.1;NW;1016.8;15.9;22.8;0.0;0.0;0.3;20.1;195.3;0;1
176;04-10-2011 15:30;30;57;24.9;63;22.3;1020.0;1.1;2.5;SE;1016.8;14.9;22.3;0.0;0.0;0.3;20.1;195.3;1;1
177;04-10-2011 16:00;30;57;24.9;64;22.4;1019.8;0.0;1.1;N;1016.6;15.3;22.4;0.0;0.0;0.3;20.1;195.3;0;1
178;04-10-2011 16:30;30;57;24.9;62;23.9;1019.6;0.0;0.0;N;1016.4;16.2;23.9;0.0;0.0;0.3;19.8;195.3;0;0
179;04-10-2011 17:00;30;56;25.0;58;24.1;1019.7;0.0;0.0;N;1016.5;15.4;24.1;0.0;0.0;0.3;19.8;195.3;0;0
180;04-10-2011 17:30;30;57;24.9;61;22.9;1019.6;1.1;2.5;NE;1016.4;15.0;22.9;0.0;0.0;0.3;19.8;195.3;1;1
181;04-10-2011 18:00;30;57;24.9;63;22.2;1019.6;0.0;0.0;E;1016.4;14.8;22.2;0.0;0.0;0.3;19.8;195.3;0;0
182;04-10-2011 19:09;30;56;25.0;66;21.0;1019.6;0.0;0.0;N;1016.4;14.4;21.0;0.0;0.0;0.3;19.5;195.3;0;0
183;04-10-2011 19:39;30;56;25.1;69;20.4;1019.9;0.0;1.1;N;1016.7;14.5;20.4;0.0;0.0;0.3;19.5;195.3;0;1
184;04-10-2011 20:09;30;56;25.1;72;19.8;1020.1;0.0;0.0;N;1016.9;14.6;19.8;0.0;0.0;0.3;19.5;195.3;0;0
185;04-10-2011 20:39;30;56;25.2;75;19.2;1020.3;0.0;1.1;N;1017.1;14.7;19.2;0.0;0.0;0.3;19.5;195.3;0;1
186;04-10-2011 21:09;30;56;25.1;75;19.5;1020.2;0.0;0.0;N;1017.0;15.0;19.5;0.0;0.0;0.3;19.5;195.3;0;0
187;04-10-2011 21:39;30;57;25.1;75;19.8;1020.5;0.0;1.1;N;1017.3;15.3;19.8;0.0;0.0;0.3;19.5;195.3;0;1
188;04-10-2011 22:09;30;57;25.1;75;19.9;1020.5;0.0;0.0;E;1017.3;15.4;19.9;0.0;0.0;0.3;19.5;195.3;0;0
189;04-10-2011 22:39;30;58;25.2;75;19.4;1020.4;0.0;0.0;S;1017.2;14.9;19.4;0.0;0.0;0.3;19.5;195.3;0;0
190;04-10-2011 23:09;30;56;25.1;77;18.8;1020.6;0.0;1.1;N;1017.4;14.7;18.8;0.0;0.0;0.3;19.5;195.3;0;1
191;04-10-2011 23:39;30;56;25.0;80;17.7;1020.7;0.0;0.0;N;1017.5;14.2;17.7;0.0;0.0;0.3;19.5;195.3;0;0
192;05-10-2011 00:09;30;57;24.9;81;17.0;1020.5;0.0;0.0;N;1017.3;13.7;17.0;0.0;0.0;0.3;19.5;195.3;0;0
193;05-10-2011 00:39;30;57;24.8;83;16.1;1020.3;0.0;0.0;N;1017.1;13.2;16.1;0.0;0.0;0.3;19.5;195.3;0;0
194;05-10-2011 01:09;30;57;24.7;84;16.4;1020.4;0.0;0.0;N;1017.2;13.7;16.4;0.0;0.0;0.3;19.5;195.3;0;0
195;05-10-2011 01:39;30;57;24.6;83;16.4;1020.1;0.0;1.1;N;1016.9;13.5;16.4;0.0;0.0;0.3;19.5;195.3;0;1
196;05-10-2011 02:09;30;57;24.5;84;16.0;1020.0;0.0;0.0;NW;1016.8;13.3;16.0;0.0;0.0;0.3;19.5;195.3;0;0
197;05-10-2011 02:39;30;57;24.4;83;16.3;1019.9;0.0;2.5;N;1016.7;13.4;16.3;0.0;0.0;0.3;19.5;195.3;0;1
198;05-10-2011 03:09;30;57;24.4;84;16.2;1019.9;1.1;2.5;N;1016.7;13.5;16.2;0.0;0.0;0.3;19.5;195.3;1;1
199;05-10-2011 03:39;30;57;24.4;84;16.0;1019.6;0.0;0.0;N;1016.4;13.3;16.0;0.0;0.0;0.3;19.5;195.3;0;0
200;05-10-2011 04:09;30;57;24.3;84;16.2;1019.4;0.0;2.5;NE;1016.2;13.5;16.2;0.0;0.0;0.3;19.5;195.3;0;1
201;05-10-2011 04:39;30;57;24.3;84;16.1;1019.2;0.0;0.0;NE;1016.0;13.4;16.1;0.0;0.0;0.3;19.5;195.3;0;0
202;05-10-2011 05:09;30;57;24.2;83;16.2;1019.2;0.0;1.1;NW;1016.0;13.3;16.2;0.0;0.0;0.3;19.5;195.3;0;1
203;05-10-2011 05:39;30;57;24.2;83;16.1;1019.2;0.0;1.1;NE;1016.0;13.2;16.1;0.0;0.0;0.3;19.5;195.3;0;1
204;05-10-2011 06:09;30;57;24.2;83;16.2;1019.2;0.0;1.1;NE;1016.0;13.3;16.2;0.0;0.0;0.3;19.5;195.3;0;1
205;05-10-2011 06:39;30;57;24.1;83;16.2;1019.1;0.0;1.1;N;1015.9;13.3;16.2;0.0;0.0;0.3;19.5;195.3;0;1
206;05-10-2011 07:09;30;57;24.1;83;16.3;1019.2;0.0;0.0;NE;1016.0;13.4;16.3;0.0;0.0;0.3;19.5;195.3;0;0
207;05-10-2011 07:39;30;57;24.1;82;16.6;1019.4;1.1;2.5;N;1016.2;13.5;16.6;0.0;0.0;0.3;19.5;195.3;1;1
208;05-10-2011 08:09;30;57;24.1;82;16.7;1019.5;0.0;0.0;NE;1016.3;13.6;16.7;0.0;0.0;0.3;19.5;195.3;0;0
209;05-10-2011 08:39;30;56;24.0;81;17.1;1019.7;0.0;0.0;NE;1016.5;13.8;17.1;0.0;0.0;0.3;19.5;195.3;0;0
210;05-10-2011 09:09;30;57;24.0;79;17.5;1019.9;0.0;1.1;NE;1016.7;13.8;17.5;0.0;0.0;0.3;19.5;195.3;0;1
211;05-10-2011 09:39;30;57;24.0;77;18.3;1019.9;0.0;1.1;NE;1016.7;14.2;18.3;0.0;0.0;0.3;19.2;195.3;0;1
212;05-10-2011 10:09;30;57;24.1;74;19.1;1020.0;1.1;2.5;N;1016.8;14.4;19.1;0.0;0.0;0.3;19.2;195.3;1;1
213;05-10-2011 10:39;30;57;24.2;69;20.1;1020.3;0.0;1.1;NE;1017.1;14.3;20.1;0.0;0.0;0.3;19.2;195.3;0;1
214;05-10-2011 11:09;30;57;24.3;67;20.7;1020.1;0.0;2.5;NE;1016.9;14.4;20.7;0.0;0.0;0.3;19.2;195.3;0;1
215;05-10-2011 11:39;30;57;24.3;65;20.5;1020.0;1.1;2.5;NE;1016.8;13.7;20.5;0.0;0.0;0.3;19.2;195.3;1;1
216;05-10-2011 12:09;30;57;24.4;63;20.8;1020.0;1.1;3.6;N;1016.8;13.5;20.8;0.0;0.0;0.3;19.2;195.3;1;1
217;05-10-2011 12:39;30;57;24.5;61;21.1;1020.1;1.1;3.6;NE;1016.9;13.3;21.1;0.0;0.0;0.3;19.2;195.3;1;1
218;05-10-2011 13:09;30;57;24.6;56;22.4;1020.0;1.1;2.5;NW;1016.8;13.2;22.4;0.0;0.0;0.3;19.2;195.3;1;1
219;05-10-2011 13:39;30;57;24.6;54;21.8;1019.7;1.1;3.6;NWW;1016.5;12.1;21.8;0.0;0.0;0.3;19.2;195.3;1;1
220;05-10-2011 14:09;30;56;24.6;60;20.8;1019.5;0.0;1.1;NE;1016.3;12.8;20.8;0.0;0.0;0.3;19.2;195.3;0;1
221;05-10-2011 14:39;30;56;24.5;63;20.4;1019.4;1.1;2.5;N;1016.2;13.1;20.4;0.0;0.0;0.3;19.2;195.3;1;1
222;05-10-2011 15:09;30;56;24.5;63;20.5;1019.1;1.1;2.5;E;1015.9;13.2;20.5;0.0;0.0;0.3;19.2;195.3;1;1
223;05-10-2011 15:39;30;56;24.5;64;20.3;1018.9;1.1;6.1;E;1015.7;13.3;20.3;0.0;0.0;0.3;19.2;195.3;1;2
224;05-10-2011 16:09;30;56;24.5;63;20.7;1018.7;0.0;2.5;N;1015.5;13.4;20.7;0.0;0.0;0.3;19.2;195.3;0;1
225;05-10-2011 16:39;30;56;24.5;61;20.7;1018.5;0.0;0.0;SE;1015.3;12.9;20.7;0.0;0.0;0.3;19.2;195.3;0;0
226;05-10-2011 17:09;30;56;24.5;61;20.9;1018.3;1.1;2.5;SSW;1015.1;13.1;20.9;0.0;0.0;0.3;19.2;195.3;1;1
227;05-10-2011 17:39;30;56;24.5;59;20.7;1018.1;2.5;5.0;NW;1014.9;12.4;20.7;0.0;0.0;0.3;19.2;195.3;1;1
228;05-10-2011 18:09;30;56;24.5;60;20.3;1017.9;0.0;1.1;E;1014.7;12.3;20.3;0.0;0.0;0.3;19.2;195.3;0;1
229;05-10-2011 18:39;30;54;24.4;64;19.8;1017.9;1.1;5.0;NW;1014.7;12.8;19.8;0.0;0.0;0.3;19.2;195.3;1;1
230;05-10-2011 19:09;30;54;24.1;65;19.4;1017.8;1.1;3.6;N;1014.6;12.7;19.4;0.0;0.0;0.3;19.2;195.3;1;1
231;05-10-2011 19:39;30;54;24.1;66;19.1;1017.6;2.5;3.6;N;1014.4;12.6;19.1;0.0;0.0;0.3;19.2;195.3;1;1